カタログに戻る

STARLINK-1154

運用中通信VLEO
NORAD 45198·PAYLOAD·🇺🇸 United States

打ち上げ Feb 17, 2020 から Cape Canaveral Space Force Station

Loading…

次のパス (今後24時間)

TLE

最新Source: CelesTrak SupGP

元期: Sep 15, 2026, 00:55 UTC

1 45198C 20012W   26258.03868056  .00044080  00000+0  32874-3 0  2581
2 45198  53.0368 165.7836 0001484  55.4520 286.1959 15.72053646    18

AllMySatでSTARLINK-1154をリアルタイム追跡

Download on the App Store